| time (UTC) | temp F | wind direction | speed knots | gust knots | rain 1hr in | rain 24hr in | rain mn in | humidity % | barometer mb |
| 20260904172520 | 71 | 0 | 0.0 | 0.9 | 0.00 | 0.00 | 0.00 | 95 | 1015.2 |
| 20260904172025 | 70 | 0 | 0.0 | 0.9 | 0.00 | 0.00 | 0.00 | 95 | 1015.2 |
| 20260904171540 | 70 | 0 | 0.0 | 0.0 | 0.00 | 0.00 | 0.00 | 96 | 1015.3 |
| 20260904171020 | 70 | 0 | 0.0 | 0.0 | 0.00 | 0.00 | 0.00 | 96 | 1015.2 |
| 20260904170516 | 70 | 0 | 0.0 | 0.0 | 0.00 | 0.00 | 0.00 | 96 | 1015.2 |
| 20260904170035 | 69 | 0 | 0.0 | 0.0 | 0.00 | 0.00 | 0.00 | 97 | 1015.2 |
| 20260904165522 | 69 | 0 | 0.0 | 0.9 | 0.00 | 0.00 | 0.00 | 97 | 1015.2 |
| 20260904165019 | 69 | 0 | 0.0 | 1.7 | 0.00 | 0.00 | 0.00 | 97 | 1015.2 |
| 20260904164541 | 69 | 0 | 0.0 | 1.7 | 0.00 | 0.00 | 0.00 | 97 | 1015.4 |
| 20260904164021 | 69 | 0 | 0.0 | 2.6 | 0.00 | 0.00 | 0.00 | 97 | 1015.4 |
| 20260904163522 | 69 | 0 | 0.9 | 2.6 | 0.00 | 0.00 | 0.00 | 98 | 1015.3 |
| 20260904163035 | 69 | 0 | 0.0 | 1.7 | 0.00 | 0.00 | 0.00 | 98 | 1015.3 |
| 20260904162520 | 68 | 0 | 0.0 | 1.7 | 0.00 | 0.00 | 0.00 | 98 | 1015.4 |
| 20260904162020 | 68 | 0 | 0.0 | 1.7 | 0.00 | 0.00 | 0.00 | 98 | 1015.4 |
| 20260904161535 | 68 | 323 | 0.0 | 2.6 | 0.00 | 0.00 | 0.00 | 98 | 1015.4 |
| 20260904161019 | 68 | 0 | 0.0 | 2.6 | 0.00 | 0.00 | 0.00 | 98 | 1015.4 |
| 20260904160519 | 67 | 0 | 0.0 | 1.7 | 0.00 | 0.00 | 0.00 | 98 | 1015.3 |
| 20260904160036 | 67 | 0 | 0.0 | 1.7 | 0.00 | 0.00 | 0.00 | 99 | 1015.5 |
| 20260904155516 | 67 | 0 | 0.0 | 1.7 | 0.00 | 0.00 | 0.00 | 99 | 1015.4 |
| 20260904155017 | 67 | 0 | 0.0 | 0.0 | 0.00 | 0.00 | 0.00 | 99 | 1015.4 |
| 20260904154545 | 67 | 0 | 0.0 | 0.0 | 0.00 | 0.00 | 0.00 | 99 | 1015.3 |
| 20260904154023 | 67 | 0 | 0.0 | 0.9 | 0.00 | 0.00 | 0.00 | 98 | 1015.2 |
| 20260904153520 | 67 | 0 | 0.0 | 0.9 | 0.00 | 0.00 | 0.00 | 98 | 1015.2 |
| 20260904153036 | 67 | 0 | 0.0 | 0.9 | 0.00 | 0.00 | 0.00 | 99 | 1015.1 |
| 20260904152524 | 67 | 0 | 0.0 | 1.7 | 0.00 | 0.00 | 0.00 | 99 | 1015.1 |
| 20260904152019 | 67 | 0 | 0.0 | 1.7 | 0.00 | 0.00 | 0.00 | 99 | 1015.1 |
| 20260904151538 | 66 | 0 | 0.0 | 1.7 | 0.00 | 0.00 | 0.00 | 99 | 1015.0 |
| 20260904151017 | 66 | 0 | 0.0 | 1.7 | 0.00 | 0.00 | 0.00 | 99 | 1015.0 |
| 20260904150518 | 66 | 0 | 0.0 | 0.9 | 0.00 | 0.00 | 0.00 | 99 | 1015.0 |
| 20260904150035 | 66 | 0 | 0.0 | 0.9 | 0.00 | 0.00 | 0.00 | 99 | 1014.9 |
| 20260904145516 | 66 | 0 | 0.0 | 0.9 | 0.00 | 0.00 | 0.00 | 99 | 1014.8 |
| 20260904145020 | 66 | 0 | 0.0 | 0.9 | 0.00 | 0.00 | 0.00 | 99 | 1014.7 |
| 20260904144535 | 66 | 0 | 0.0 | 0.9 | 0.00 | 0.00 | 0.00 | 98 | 1014.7 |
| 20260904144024 | 66 | 0 | 0.0 | 1.7 | 0.00 | 0.00 | 0.00 | 98 | 1014.6 |
| 20260904143520 | 66 | 0 | 0.0 | 1.7 | 0.00 | 0.00 | 0.00 | 99 | 1014.6 |
| 20260904143036 | 65 | 0 | 0.0 | 1.7 | 0.00 | 0.00 | 0.00 | 99 | 1014.5 |
| 20260904142520 | 65 | 0 | 0.0 | 0.9 | 0.00 | 0.00 | 0.00 | 98 | 1014.4 |
| 20260904142028 | 65 | 0 | 0.0 | 0.9 | 0.00 | 0.00 | 0.00 | 98 | 1014.4 |
| 20260904141542 | 65 | 0 | 0.0 | 0.9 | 0.00 | 0.00 | 0.00 | 98 | 1014.3 |
| 20260904141020 | 66 | 0 | 0.0 | 0.9 | 0.00 | 0.00 | 0.00 | 98 | 1014.3 |
| 20260904140519 | 66 | 0 | 0.0 | 0.9 | 0.00 | 0.00 | 0.00 | 98 | 1014.4 |
| 20260904140044 | 66 | 0 | 0.0 | 1.7 | 0.00 | 0.00 | 0.00 | 98 | 1014.3 |
| 20260904135521 | 67 | 0 | 0.0 | 2.6 | 0.00 | 0.00 | 0.00 | 98 | 1014.2 |
| 20260904135020 | 67 | 0 | 0.9 | 2.6 | 0.00 | 0.00 | 0.00 | 98 | 1014.2 |
| 20260904134534 | 69 | 323 | 0.0 | 0.0 | 0.00 | 0.00 | 0.00 | 99 | 1014.1 |
| 20260904134017 | 69 | 0 | 0.0 | 0.0 | 0.00 | 0.00 | 0.00 | 99 | 1014.1 |
| 20260904133522 | 69 | 0 | 0.0 | 0.0 | 0.00 | 0.00 | 0.00 | 99 | 1014.1 |
| 20260904133037 | 69 | 0 | 0.0 | 0.0 | 0.00 | 0.00 | 0.00 | 99 | 1014.0 |
| 20260904132520 | 69 | 0 | 0.0 | 2.6 | 0.00 | 0.00 | 0.00 | 99 | 1013.9 |
| 20260904132020 | 69 | 0 | 0.0 | 2.6 | 0.00 | 0.00 | 0.00 | 99 | 1013.8 |
| 20260904131533 | 69 | 0 | 0.9 | 2.6 | 0.00 | 0.00 | 0.00 | 99 | 1013.8 |
| 20260904131022 | 68 | 145 | 0.0 | 1.7 | 0.00 | 0.00 | 0.00 | 99 | 1013.7 |
| 20260904130519 | 68 | 0 | 0.0 | 6.1 | 0.00 | 0.00 | 0.00 | 99 | 1013.6 |
| 20260904130035 | 68 | 0 | 0.9 | 6.1 | 0.00 | 0.00 | 0.00 | 99 | 1013.6 |
| 20260904125518 | 68 | 134 | 2.6 | 6.1 | 0.00 | 0.00 | 0.00 | 99 | 1013.4 |
| 20260904125016 | 68 | 167 | 1.7 | 7.0 | 0.00 | 0.00 | 0.00 | 99 | 1013.4 |
| 20260904124535 | 68 | 148 | 1.7 | 7.0 | 0.00 | 0.00 | 0.00 | 99 | 1013.3 |
| 20260904124016 | 68 | 0 | 1.7 | 7.0 | 0.00 | 0.00 | 0.00 | 99 | 1013.2 |
| 20260904123522 | 68 | 116 | 2.6 | 4.3 | 0.00 | 0.00 | 0.00 | 99 | 1013.1 |
| 20260904123035 | 68 | 151 | 0.9 | 3.5 | 0.00 | 0.00 | 0.00 | 99 | 1013.1 |
| 20260904122523 | 68 | 132 | 0.9 | 3.5 | 0.00 | 0.00 | 0.00 | 99 | 1013.0 |
| 20260904122020 | 68 | 123 | 0.9 | 3.5 | 0.00 | 0.00 | 0.00 | 99 | 1012.9 |
| 20260904121534 | 68 | 123 | 0.0 | 3.5 | 0.00 | 0.00 | 0.00 | 99 | 1012.9 |
| 20260904121020 | 68 | 123 | 0.9 | 3.5 | 0.00 | 0.00 | 0.00 | 99 | 1012.8 |
| 20260904120520 | 68 | 116 | 1.7 | 3.5 | 0.00 | 0.00 | 0.00 | 99 | 1012.8 |
| 20260904120046 | 68 | 142 | 1.7 | 3.5 | 0.00 | 0.00 | 0.00 | 99 | 1012.7 |
| 20260904115518 | 67 | 123 | 0.9 | 3.5 | 0.00 | 0.00 | 0.00 | 98 | 1012.7 |
| 20260904115017 | 67 | 123 | 0.9 | 3.5 | 0.00 | 0.00 | 0.00 | 98 | 1012.7 |
| 20260904114536 | 67 | 123 | 0.0 | 2.6 | 0.00 | 0.00 | 0.00 | 98 | 1012.8 |
| 20260904114020 | 67 | 123 | 0.9 | 2.6 | 0.00 | 0.00 | 0.00 | 98 | 1012.8 |
| 20260904113520 | 67 | 123 | 0.9 | 3.5 | 0.00 | 0.00 | 0.00 | 98 | 1012.6 |
| 20260904113041 | 67 | 0 | 0.9 | 3.5 | 0.00 | 0.00 | 0.00 | 98 | 1012.7 |
| 20260904112520 | 67 | 105 | 0.9 | 5.2 | 0.00 | 0.00 | 0.00 | 98 | 1012.6 |
| 20260904112019 | 67 | 126 | 1.7 | 5.2 | 0.00 | 0.00 | 0.00 | 98 | 1012.6 |
| 20260904111537 | 67 | 128 | 1.7 | 4.3 | 0.00 | 0.00 | 0.00 | 98 | 1012.5 |
| 20260904111021 | 67 | 112 | 1.7 | 4.3 | 0.00 | 0.00 | 0.00 | 98 | 1012.6 |
| 20260904110520 | 66 | 157 | 0.9 | 4.3 | 0.00 | 0.00 | 0.00 | 98 | 1012.5 |
| 20260904110033 | 66 | 148 | 1.7 | 4.3 | 0.00 | 0.00 | 0.00 | 98 | 1012.5 |
| 20260904105520 | 66 | 0 | 0.9 | 4.3 | 0.00 | 0.00 | 0.00 | 98 | 1012.5 |
| 20260904105017 | 66 | 128 | 0.9 | 2.6 | 0.00 | 0.00 | 0.00 | 98 | 1012.4 |
| 20260904104548 | 65 | 0 | 0.0 | 2.6 | 0.00 | 0.00 | 0.00 | 97 | 1012.5 |
| 20260904104019 | 65 | 0 | 0.0 | 0.0 | 0.00 | 0.00 | 0.00 | 97 | 1012.7 |
| 20260904103515 | 65 | 0 | 0.0 | 0.0 | 0.00 | 0.00 | 0.00 | 97 | 1012.8 |
| 20260904103034 | 65 | 0 | 0.0 | 0.9 | 0.00 | 0.00 | 0.00 | 97 | 1013.0 |
| 20260904102518 | 65 | 0 | 0.0 | 1.7 | 0.00 | 0.00 | 0.00 | 96 | 1013.0 |
| 20260904102024 | 66 | 0 | 0.0 | 1.7 | 0.00 | 0.00 | 0.00 | 96 | 1013.0 |
| 20260904101533 | 66 | 128 | 0.0 | 2.6 | 0.00 | 0.00 | 0.00 | 97 | 1013.0 |
| 20260904101021 | 66 | 0 | 0.0 | 3.5 | 0.00 | 0.00 | 0.00 | 97 | 1012.8 |
| 20260904100521 | 66 | 128 | 0.0 | 3.5 | 0.00 | 0.00 | 0.00 | 97 | 1012.7 |
| 20260904100037 | 66 | 128 | 0.0 | 3.5 | 0.00 | 0.00 | 0.00 | 97 | 1012.8 |
| 20260904095523 | 66 | 0 | 0.0 | 3.5 | 0.00 | 0.00 | 0.00 | 97 | 1012.9 |
| 20260904095019 | 66 | 0 | 0.0 | 3.5 | 0.00 | 0.00 | 0.00 | 97 | 1012.8 |
| 20260904094536 | 66 | 146 | 0.9 | 4.3 | 0.00 | 0.00 | 0.00 | 97 | 1012.8 |
| 20260904094016 | 66 | 139 | 1.7 | 4.3 | 0.00 | 0.00 | 0.00 | 97 | 1012.9 |
| 20260904093518 | 66 | 132 | 1.7 | 6.1 | 0.00 | 0.00 | 0.00 | 98 | 1013.0 |
| 20260904093033 | 66 | 138 | 1.7 | 6.1 | 0.00 | 0.00 | 0.00 | 98 | 1012.6 |
| 20260904092519 | 65 | 140 | 0.0 | 1.7 | 0.00 | 0.00 | 0.00 | 97 | 1013.2 |
| 20260904092020 | 65 | 0 | 0.0 | 1.7 | 0.00 | 0.00 | 0.00 | 97 | 1013.6 |
| 20260904091537 | 65 | 187 | 0.0 | 1.7 | 0.00 | 0.00 | 0.00 | 97 | 1013.5 |
| 20260904091017 | 65 | 0 | 0.0 | 4.3 | 0.00 | 0.00 | 0.00 | 97 | 1013.4 |
| 20260904090516 | 65 | 0 | 0.0 | 4.3 | 0.00 | 0.00 | 0.00 | 96 | 1013.8 |
| 20260904090036 | 65 | 0 | 0.9 | 3.5 | 0.00 | 0.00 | 0.00 | 97 | 1014.3 |
| 20260904085521 | 65 | 339 | 0.9 | 3.5 | 0.00 | 0.00 | 0.00 | 97 | 1014.7 |
| 20260904085020 | 65 | 0 | 0.0 | 0.0 | 0.00 | 0.00 | 0.00 | 97 | 1013.6 |
| 20260904084539 | 65 | 0 | 0.0 | 0.0 | 0.00 | 0.00 | 0.00 | 97 | 1013.6 |
| 20260904084020 | 65 | 0 | 0.0 | 0.0 | 0.00 | 0.00 | 0.00 | 97 | 1013.4 |
| 20260904083519 | 65 | 0 | 0.0 | 0.0 | 0.00 | 0.00 | 0.00 | 97 | 1013.3 |
| 20260904083037 | 65 | 0 | 0.0 | 0.0 | 0.00 | 0.00 | 0.00 | 97 | 1013.3 |
| 20260904082518 | 65 | 0 | 0.0 | 0.0 | 0.00 | 0.00 | 0.00 | 97 | 1013.1 |
| 20260904082018 | 65 | 0 | 0.0 | 0.0 | 0.00 | 0.00 | 0.00 | 97 | 1013.1 |
| 20260904081535 | 65 | 0 | 0.0 | 0.0 | 0.00 | 0.00 | 0.00 | 97 | 1013.1 |
| 20260904081018 | 65 | 0 | 0.0 | 0.0 | 0.00 | 0.00 | 0.00 | 97 | 1013.0 |
| 20260904080516 | 65 | 0 | 0.0 | 0.0 | 0.00 | 0.00 | 0.00 | 97 | 1012.7 |
| 20260904080036 | 65 | 0 | 0.0 | 0.0 | 0.00 | 0.00 | 0.00 | 97 | 1012.7 |
| 20260904075521 | 65 | 0 | 0.0 | 0.0 | 0.00 | 0.00 | 0.00 | 97 | 1012.8 |
| 20260904075021 | 65 | 0 | 0.0 | 0.0 | 0.00 | 0.00 | 0.00 | 97 | 1012.8 |
| 20260904074534 | 65 | 0 | 0.0 | 0.0 | 0.00 | 0.00 | 0.00 | 97 | 1013.0 |
| 20260904074019 | 65 | 0 | 0.0 | 0.0 | 0.00 | 0.00 | 0.00 | 97 | 1012.9 |
| 20260904073518 | 64 | 0 | 0.0 | 0.0 | 0.00 | 0.00 | 0.00 | 97 | 1012.9 |
| 20260904073037 | 65 | 0 | 0.0 | 0.0 | 0.00 | 0.00 | 0.00 | 97 | 1012.8 |
| 20260904072517 | 64 | 0 | 0.0 | 0.0 | 0.00 | 0.00 | 0.00 | 97 | 1012.9 |
| 20260904072020 | 64 | 0 | 0.0 | 0.0 | 0.00 | 0.00 | 0.00 | 97 | 1012.8 |
| 20260904071542 | 64 | 0 | 0.0 | 0.0 | 0.00 | 0.00 | 0.00 | 97 | 1012.7 |
| 20260904071020 | 64 | 0 | 0.0 | 0.0 | 0.00 | 0.00 | 0.00 | 97 | 1012.8 |
| 20260904070520 | 64 | 0 | 0.0 | 1.7 | 0.00 | 0.00 | 0.00 | 97 | 1012.9 |
| 20260904070036 | 64 | 0 | 0.0 | 1.7 | 0.00 | 0.00 | 0.00 | 97 | 1012.9 |
| 20260904065521 | 64 | 190 | 0.0 | 1.7 | 0.00 | 0.00 | 0.00 | 96 | 1013.2 |
| 20260904065020 | 64 | 0 | 0.0 | 0.0 | 0.00 | 0.00 | 0.00 | 96 | 1013.5 |
| 20260904064538 | 64 | 0 | 0.0 | 0.0 | 0.00 | 0.00 | 0.00 | 96 | 1013.4 |
| 20260904064018 | 65 | 0 | 0.0 | 1.7 | 0.00 | 0.00 | 0.00 | 96 | 1013.5 |
| 20260904063518 | 65 | 0 | 0.0 | 1.7 | 0.00 | 0.00 | 0.00 | 97 | 1013.4 |
| 20260904063038 | 65 | 0 | 0.0 | 2.6 | 0.00 | 0.00 | 0.00 | 97 | 1013.5 |
| 20260904062519 | 65 | 0 | 0.0 | 2.6 | 0.00 | 0.00 | 0.00 | 97 | 1013.5 |
| 20260904062019 | 65 | 0 | 0.0 | 1.7 | 0.00 | 0.00 | 0.00 | 96 | 1013.5 |
| 20260904061540 | 65 | 0 | 0.0 | 1.7 | 0.00 | 0.00 | 0.00 | 96 | 1013.7 |
| 20260904061021 | 65 | 0 | 0.0 | 1.7 | 0.00 | 0.00 | 0.00 | 95 | 1013.9 |
| 20260904060521 | 65 | 0 | 0.0 | 0.9 | 0.00 | 0.00 | 0.00 | 95 | 1014.1 |
| 20260904060038 | 65 | 0 | 0.0 | 1.7 | 0.00 | 0.00 | 0.00 | 95 | 1014.2 |
| 20260904055517 | 65 | 0 | 0.0 | 2.6 | 0.00 | 0.00 | 0.00 | 95 | 1014.3 |
| 20260904055015 | 65 | 0 | 0.0 | 2.6 | 0.00 | 0.00 | 0.00 | 95 | 1014.2 |
| 20260904054540 | 65 | 190 | 0.0 | 1.7 | 0.00 | 0.00 | 0.00 | 95 | 1014.0 |
| 20260904054023 | 65 | 0 | 0.0 | 0.9 | 0.00 | 0.00 | 0.00 | 95 | 1014.0 |
| 20260904053521 | 65 | 0 | 0.0 | 2.6 | 0.00 | 0.00 | 0.00 | 94 | 1014.1 |
| 20260904053040 | 65 | 0 | 0.0 | 2.6 | 0.00 | 0.00 | 0.00 | 95 | 1014.3 |
| 20260904052517 | 65 | 0 | 0.0 | 1.7 | 0.00 | 0.00 | 0.00 | 95 | 1014.2 |
| 20260904052016 | 65 | 0 | 0.0 | 1.7 | 0.00 | 0.00 | 0.00 | 94 | 1014.4 |
| 20260904051535 | 65 | 0 | 0.0 | 0.9 | 0.00 | 0.00 | 0.00 | 94 | 1014.4 |
| 20260904051019 | 65 | 0 | 0.0 | 1.7 | 0.00 | 0.00 | 0.00 | 94 | 1014.3 |
| 20260904050524 | 65 | 0 | 0.0 | 1.7 | 0.00 | 0.00 | 0.00 | 94 | 1014.2 |
| 20260904050037 | 65 | 0 | 0.0 | 1.7 | 0.00 | 0.00 | 0.00 | 94 | 1014.2 |
| 20260904045524 | 65 | 0 | 0.0 | 1.7 | 0.00 | 0.00 | 0.00 | 94 | 1014.2 |
| 20260904045019 | 65 | 0 | 0.0 | 7.0 | 0.00 | 0.00 | 0.00 | 94 | 1014.2 |
| 20260904044536 | 65 | 0 | 0.9 | 7.0 | 0.00 | 0.00 | 0.00 | 94 | 1014.3 |
| 20260904044016 | 65 | 350 | 1.7 | 7.0 | 0.00 | 0.00 | 0.00 | 93 | 1014.4 |
| 20260904043520 | 65 | 0 | 0.0 | 3.5 | 0.00 | 0.00 | 0.00 | 94 | 1014.5 |
| 20260904043037 | 66 | 290 | 0.9 | 3.5 | 0.00 | 0.00 | 0.00 | 94 | 1014.5 |
| 20260904042521 | 66 | 0 | 0.0 | 0.0 | 0.00 | 0.00 | 0.00 | 95 | 1014.3 |
| 20260904042022 | 65 | 0 | 0.0 | 1.7 | 0.00 | 0.00 | 0.00 | 94 | 1014.1 |
| 20260904041537 | 65 | 0 | 0.0 | 1.7 | 0.00 | 0.00 | 0.00 | 94 | 1014.0 |
| 20260904041016 | 65 | 298 | 0.0 | 3.5 | 0.00 | 0.00 | 0.00 | 94 | 1013.8 |
| 20260904040517 | 65 | 0 | 0.0 | 3.5 | 0.00 | 0.00 | 0.00 | 94 | 1013.7 |
| 20260904040039 | 65 | 283 | 0.9 | 3.5 | 0.00 | 0.00 | 0.00 | 94 | 1013.8 |
| 20260904035522 | 65 | 334 | 0.9 | 3.5 | 0.00 | 0.00 | 0.00 | 94 | 1013.6 |
| 20260904035021 | 65 | 0 | 0.0 | 2.6 | 0.00 | 0.00 | 0.00 | 95 | 1013.7 |
| 20260904034536 | 65 | 0 | 0.0 | 0.0 | 0.00 | 0.00 | 0.00 | 94 | 1013.5 |
| 20260904034019 | 65 | 0 | 0.0 | 0.0 | 0.00 | 0.00 | 0.00 | 94 | 1013.4 |
| 20260904033520 | 65 | 0 | 0.0 | 0.0 | 0.00 | 0.00 | 0.00 | 94 | 1013.5 |
| 20260904033038 | 65 | 0 | 0.0 | 0.0 | 0.00 | 0.00 | 0.00 | 94 | 1013.7 |
| 20260904032518 | 65 | 0 | 0.0 | 0.0 | 0.00 | 0.00 | 0.00 | 93 | 1013.7 |
| 20260904032018 | 65 | 0 | 0.0 | 0.0 | 0.00 | 0.00 | 0.00 | 93 | 1013.8 |
| 20260904031536 | 65 | 0 | 0.0 | 0.0 | 0.00 | 0.00 | 0.00 | 93 | 1014.0 |
| 20260904031020 | 65 | 0 | 0.0 | 0.9 | 0.00 | 0.00 | 0.00 | 93 | 1014.0 |
| 20260904030522 | 65 | 0 | 0.0 | 0.9 | 0.00 | 0.00 | 0.00 | 93 | 1014.0 |
| 20260904030034 | 65 | 0 | 0.0 | 0.9 | 0.00 | 0.00 | 0.00 | 93 | 1013.9 |
| 20260904025522 | 66 | 0 | 0.0 | 0.0 | 0.00 | 0.00 | 0.00 | 94 | 1013.9 |
| 20260904025021 | 66 | 0 | 0.0 | 0.0 | 0.00 | 0.00 | 0.00 | 93 | 1013.7 |
| 20260904024538 | 66 | 0 | 0.0 | 1.7 | 0.00 | 0.00 | 0.00 | 93 | 1013.6 |
| 20260904024021 | 66 | 0 | 0.0 | 1.7 | 0.00 | 0.00 | 0.00 | 93 | 1013.6 |
| 20260904023520 | 66 | 0 | 0.0 | 1.7 | 0.00 | 0.00 | 0.00 | 92 | 1013.6 |
| 20260904023036 | 66 | 327 | 0.0 | 1.7 | 0.00 | 0.00 | 0.00 | 91 | 1013.5 |
| 20260904022518 | 67 | 0 | 0.0 | 0.0 | 0.00 | 0.00 | 0.00 | 92 | 1013.3 |
| 20260904022021 | 67 | 0 | 0.0 | 0.0 | 0.00 | 0.00 | 0.00 | 91 | 1013.3 |
| 20260904021548 | 68 | 0 | 0.0 | 0.0 | 0.00 | 0.00 | 0.00 | 89 | 1013.2 |
| 20260904021022 | 68 | 0 | 0.0 | 0.0 | 0.00 | 0.00 | 0.00 | 89 | 1013.2 |
| 20260904020521 | 68 | 0 | 0.0 | 1.7 | 0.00 | 0.00 | 0.00 | 88 | 1013.2 |
| 20260904020036 | 68 | 0 | 0.0 | 1.7 | 0.00 | 0.00 | 0.00 | 88 | 1013.1 |
| 20260904015519 | 68 | 174 | 0.0 | 1.7 | 0.00 | 0.00 | 0.00 | 87 | 1013.4 |
| 20260904015022 | 69 | 0 | 0.0 | 0.0 | 0.00 | 0.00 | 0.00 | 87 | 1013.5 |
| 20260904014539 | 69 | 0 | 0.0 | 2.6 | 0.00 | 0.00 | 0.00 | 87 | 1013.6 |
| 20260904014020 | 69 | 0 | 0.0 | 2.6 | 0.00 | 0.00 | 0.00 | 87 | 1013.5 |
| 20260904013520 | 69 | 0 | 0.0 | 2.6 | 0.00 | 0.00 | 0.00 | 86 | 1013.6 |
| 20260904013033 | 69 | 0 | 0.0 | 1.7 | 0.00 | 0.00 | 0.00 | 84 | 1013.8 |
| 20260904012521 | 69 | 0 | 0.0 | 0.0 | 0.00 | 0.00 | 0.00 | 84 | 1013.7 |
| 20260904012022 | 69 | 0 | 0.0 | 0.0 | 0.00 | 0.00 | 0.00 | 83 | 1013.5 |
| 20260904011548 | 69 | 0 | 0.0 | 0.0 | 0.00 | 0.00 | 0.00 | 82 | 1013.7 |
| 20260904011020 | 69 | 0 | 0.0 | 0.0 | 0.00 | 0.00 | 0.00 | 83 | 1013.6 |
| 20260904010521 | 69 | 0 | 0.0 | 0.0 | 0.00 | 0.00 | 0.00 | 82 | 1013.7 |
| 20260904010036 | 70 | 0 | 0.0 | 0.0 | 0.00 | 0.00 | 0.00 | 81 | 1013.7 |
| 20260904005523 | 70 | 0 | 0.0 | 0.0 | 0.00 | 0.00 | 0.00 | 81 | 1013.6 |
| 20260904005019 | 70 | 0 | 0.0 | 0.0 | 0.00 | 0.00 | 0.00 | 81 | 1013.4 |
| 20260904004537 | 70 | 0 | 0.0 | 0.0 | 0.00 | 0.00 | 0.00 | 80 | 1013.6 |
| 20260904004019 | 71 | 0 | 0.0 | 0.0 | 0.00 | 0.00 | 0.00 | 80 | 1013.6 |
| 20260904003520 | 71 | 0 | 0.0 | 0.0 | 0.00 | 0.00 | 0.00 | 80 | 1013.7 |
| 20260904003035 | 71 | 0 | 0.0 | 1.7 | 0.00 | 0.00 | 0.00 | 80 | 1013.3 |
| 20260904002517 | 71 | 0 | 0.0 | 1.7 | 0.00 | 0.00 | 0.00 | 80 | 1013.5 |
| 20260904002020 | 72 | 307 | 0.0 | 0.9 | 0.00 | 0.00 | 0.00 | 80 | 1013.3 |
| 20260904001535 | 72 | 0 | 0.0 | 0.0 | 0.00 | 0.00 | 0.00 | 80 | 1013.3 |
| 20260904001020 | 72 | 0 | 0.0 | 0.0 | 0.00 | 0.00 | 0.00 | 79 | 1013.5 |
| 20260904000523 | 72 | 0 | 0.0 | 0.0 | 0.00 | 0.00 | 0.00 | 79 | 1013.6 |
| 20260904000039 | 72 | 0 | 0.0 | 1.7 | 0.00 | 0.00 | 0.00 | 79 | 1013.3 |
| 20260903235523 | 72 | 0 | 0.0 | 1.7 | 0.00 | 0.00 | 0.00 | 77 | 1013.4 |
| 20260903235022 | 73 | 0 | 0.0 | 0.9 | 0.00 | 0.00 | 0.00 | 77 | 1013.4 |
| 20260903234537 | 73 | 0 | 0.0 | 0.9 | 0.00 | 0.00 | 0.00 | 77 | 1013.3 |
| 20260903234016 | 73 | 0 | 0.0 | 1.7 | 0.00 | 0.00 | 0.00 | 78 | 1013.6 |
| 20260903233517 | 73 | 0 | 0.0 | 1.7 | 0.00 | 0.00 | 0.00 | 78 | 1013.2 |
| 20260903233035 | 73 | 307 | 0.0 | 1.7 | 0.00 | 0.00 | 0.00 | 77 | 1012.9 |
| 20260903232519 | 73 | 0 | 0.0 | 1.7 | 0.00 | 0.00 | 0.00 | 76 | 1013.2 |
| 20260903232018 | 74 | 0 | 0.0 | 0.9 | 0.00 | 0.00 | 0.00 | 75 | 1013.2 |
| 20260903231535 | 74 | 0 | 0.0 | 2.6 | 0.00 | 0.00 | 0.00 | 74 | 1013.1 |
| 20260903231016 | 75 | 0 | 0.0 | 2.6 | 0.00 | 0.00 | 0.00 | 73 | 1013.0 |
| 20260903230521 | 75 | 0 | 0.0 | 2.6 | 0.00 | 0.00 | 0.00 | 73 | 1012.9 |
| 20260903230038 | 76 | 0 | 0.0 | 1.7 | 0.00 | 0.00 | 0.00 | 73 | 1012.9 |
| 20260903225524 | 76 | 0 | 0.0 | 2.6 | 0.00 | 0.00 | 0.00 | 73 | 1012.7 |
| 20260903225021 | 76 | 0 | 0.0 | 2.6 | 0.00 | 0.00 | 0.00 | 72 | 1012.8 |
| 20260903224537 | 76 | 0 | 0.0 | 1.7 | 0.00 | 0.00 | 0.00 | 72 | 1012.9 |
| 20260903224019 | 77 | 0 | 0.0 | 1.7 | 0.00 | 0.00 | 0.00 | 71 | 1013.1 |
| 20260903223518 | 77 | 0 | 0.0 | 2.6 | 0.00 | 0.00 | 0.00 | 70 | 1013.0 |
| 20260903223042 | 78 | 0 | 0.0 | 3.5 | 0.00 | 0.00 | 0.00 | 69 | 1013.0 |
| 20260903222516 | 78 | 0 | 0.0 | 3.5 | 0.00 | 0.00 | 0.00 | 69 | 1012.9 |
| 20260903222018 | 79 | 320 | 0.0 | 3.5 | 0.00 | 0.00 | 0.00 | 69 | 1012.8 |
| 20260903221535 | 79 | 0 | 0.0 | 3.5 | 0.00 | 0.00 | 0.00 | 70 | 1012.8 |
| 20260903221021 | 79 | 0 | 0.9 | 3.5 | 0.00 | 0.00 | 0.00 | 68 | 1012.9 |
| 20260903220520 | 79 | 173 | 0.0 | 3.5 | 0.00 | 0.00 | 0.00 | 69 | 1012.7 |
| 20260903220052 | 80 | 0 | 0.0 | 2.6 | 0.00 | 0.00 | 0.00 | 70 | 1012.8 |
| 20260903215521 | 80 | 303 | 0.0 | 3.5 | 0.00 | 0.00 | 0.00 | 67 | 1012.8 |
| 20260903215020 | 81 | 146 | 0.0 | 3.5 | 0.00 | 0.00 | 0.00 | 69 | 1012.8 |
| 20260903214535 | 81 | 282 | 0.9 | 3.5 | 0.00 | 0.00 | 0.00 | 67 | 1012.8 |
| 20260903214017 | 81 | 0 | 0.0 | 2.6 | 0.00 | 0.00 | 0.00 | 69 | 1012.8 |
| 20260903213516 | 81 | 0 | 0.0 | 6.1 | 0.00 | 0.00 | 0.00 | 69 | 1012.8 |
| 20260903213036 | 81 | 0 | 0.0 | 6.1 | 0.00 | 0.00 | 0.00 | 69 | 1012.8 |
| 20260903212516 | 81 | 128 | 1.7 | 6.1 | 0.00 | 0.00 | 0.00 | 70 | 1012.7 |
| 20260903212019 | 81 | 185 | 0.0 | 3.5 | 0.00 | 0.00 | 0.00 | 73 | 1012.5 |
| 20260903211536 | 80 | 0 | 0.0 | 3.5 | 0.00 | 0.00 | 0.00 | 73 | 1012.7 |
| 20260903211020 | 80 | 185 | 1.7 | 3.5 | 0.00 | 0.00 | 0.00 | 76 | 1012.7 |
| 20260903210521 | 80 | 185 | 1.7 | 3.5 | 0.00 | 0.00 | 0.00 | 74 | 1012.6 |
| 20260903210038 | 80 | 0 | 0.0 | 1.7 | 0.00 | 0.00 | 0.00 | 74 | 1012.6 |
| 20260903205519 | 80 | 0 | 0.0 | 1.7 | 0.00 | 0.00 | 0.00 | 76 | 1012.8 |
| 20260903205020 | 80 | 0 | 0.0 | 0.0 | 0.00 | 0.00 | 0.00 | 76 | 1012.9 |
| 20260903204537 | 80 | 0 | 0.0 | 0.9 | 0.00 | 0.00 | 0.00 | 77 | 1012.8 |
| 20260903204019 | 80 | 0 | 0.0 | 2.6 | 0.00 | 0.00 | 0.00 | 75 | 1013.1 |
| 20260903203518 | 80 | 0 | 0.0 | 2.6 | 0.00 | 0.00 | 0.00 | 74 | 1013.1 |
| 20260903203036 | 80 | 0 | 0.9 | 3.5 | 0.00 | 0.00 | 0.00 | 74 | 1013.2 |
| 20260903202516 | 80 | 120 | 0.9 | 3.5 | 0.00 | 0.00 | 0.00 | 73 | 1013.3 |
| 20260903202022 | 80 | 120 | 1.7 | 3.5 | 0.00 | 0.00 | 0.00 | 73 | 1013.3 |
| 20260903201535 | 80 | 0 | 0.9 | 2.6 | 0.00 | 0.00 | 0.00 | 74 | 1013.3 |
| 20260903201021 | 80 | 171 | 0.0 | 1.7 | 0.00 | 0.00 | 0.00 | 74 | 1013.4 |
| 20260903200520 | 80 | 0 | 0.0 | 4.3 | 0.00 | 0.00 | 0.00 | 74 | 1013.4 |
| 20260903200033 | 80 | 171 | 1.7 | 4.3 | 0.00 | 0.00 | 0.00 | 74 | 1013.5 |
| 20260903195520 | 80 | 151 | 1.7 | 3.5 | 0.00 | 0.00 | 0.00 | 74 | 1013.5 |
| 20260903195018 | 80 | 0 | 0.9 | 2.6 | 0.00 | 0.00 | 0.00 | 73 | 1013.6 |
| 20260903194546 | 80 | 0 | 0.0 | 1.7 | 0.00 | 0.00 | 0.00 | 76 | 1013.5 |
| 20260903194027 | 79 | 147 | 0.0 | 2.6 | 0.00 | 0.00 | 0.00 | 75 | 1013.4 |
| 20260903193518 | 79 | 0 | 0.0 | 2.6 | 0.00 | 0.00 | 0.00 | 79 | 1013.4 |
| 20260903193038 | 79 | 147 | 0.0 | 2.6 | 0.00 | 0.00 | 0.00 | 78 | 1013.5 |
| 20260903192519 | 79 | 0 | 0.0 | 0.0 | 0.00 | 0.00 | 0.00 | 79 | 1013.6 |
| 20260903192021 | 78 | 0 | 0.0 | 1.7 | 0.00 | 0.00 | 0.00 | 82 | 1013.7 |
| 20260903191535 | 78 | 0 | 0.0 | 1.7 | 0.00 | 0.00 | 0.00 | 81 | 1013.6 |
| 20260903191021 | 78 | 147 | 0.0 | 3.5 | 0.00 | 0.00 | 0.00 | 82 | 1013.7 |
| 20260903190521 | 77 | 147 | 0.9 | 4.3 | 0.00 | 0.00 | 0.00 | 81 | 1013.6 |
| 20260903190034 | 77 | 161 | 0.9 | 6.1 | 0.00 | 0.00 | 0.00 | 82 | 1013.7 |
| 20260903185522 | 77 | 154 | 0.9 | 6.1 | 0.00 | 0.00 | 0.00 | 81 | 1013.8 |
| 20260903185019 | 77 | 178 | 1.7 | 4.3 | 0.00 | 0.00 | 0.00 | 80 | 1013.8 |
| 20260903184536 | 77 | 0 | 1.7 | 4.3 | 0.00 | 0.00 | 0.00 | 80 | 1013.8 |
| 20260903184018 | 77 | 0 | 0.0 | 1.7 | 0.00 | 0.00 | 0.00 | 81 | 1013.9 |
| 20260903183518 | 77 | 0 | 0.0 | 2.6 | 0.00 | 0.00 | 0.00 | 81 | 1013.9 |
| 20260903183034 | 77 | 153 | 0.0 | 4.3 | 0.00 | 0.00 | 0.00 | 79 | 1014.0 |
| 20260903182522 | 77 | 140 | 1.7 | 4.3 | 0.00 | 0.00 | 0.00 | 79 | 1014.0 |
| 20260903182020 | 76 | 146 | 1.7 | 4.3 | 0.00 | 0.00 | 0.00 | 81 | 1013.9 |
| 20260903181534 | 76 | 146 | 1.7 | 4.3 | 0.00 | 0.00 | 0.00 | 81 | 1013.9 |
| 20260903181020 | 76 | 150 | 1.7 | 5.2 | 0.00 | 0.00 | 0.00 | 81 | 1014.0 |
| 20260903180521 | 76 | 0 | 1.7 | 5.2 | 0.00 | 0.00 | 0.00 | 82 | 1014.0 |
| 20260903180036 | 76 | 0 | 0.0 | 1.7 | 0.00 | 0.00 | 0.00 | 82 | 1014.1 |
| 20260903175520 | 76 | 0 | 0.0 | 1.7 | 0.00 | 0.00 | 0.00 | 81 | 1014.3 |
| 20260903175020 | 76 | 0 | 0.0 | 3.5 | 0.00 | 0.00 | 0.00 | 83 | 1014.3 |
| 20260903174535 | 76 | 136 | 0.0 | 3.5 | 0.00 | 0.00 | 0.00 | 82 | 1014.5 |
| 20260903174017 | 76 | 0 | 0.0 | 0.9 | 0.00 | 0.00 | 0.00 | 82 | 1014.3 |
| 20260903173515 | 76 | 89 | 0.0 | 0.0 | 0.00 | 0.00 | 0.00 | 84 | 1014.3 |
| 20260903173034 | 76 | 0 | 0.0 | 0.0 | 0.00 | 0.00 | 0.00 | 82 | 1014.4 |